Weather History for Lincolnton, NC

Change the Weather History Date:

Wednesday, January 30, 2013

  Actual Average (KCLT) Record (KCLT)
Temperature  
Mean Temperature 61 °F 41 °F  
Max Temperature 71 °F 52 °F 78 °F (2002)
Min Temperature 50 °F 30 °F 4 °F (1966)
Degree Days  
Heating Degree Days 4 24  
Month to date heating degree days 744  
Since 1 July heating degree days 2081  
Cooling Degree Days 0 0  
Month to date cooling degree days 0  
Year to date cooling degree days 0  
Growing Degree Days 11 (Base 50)    
Moisture  
Dew Point 57 °F    
Average Humidity 80    
Maximum Humidity 100    
Minimum Humidity 53    
Precipitation  
Precipitation 1.01 in 0.11 in 1.13 in (1960)
Month to date precipitation 3.30  
Year to date precipitation 3.30  
Snow  
Snow 0.00 in 0.00 in 3.90 in (1936)
Month to date snowfall 2.0  
Since 1 July snowfall 2.4  
Snow Depth -    
Sea Level Pressure  
Sea Level Pressure 29.73 in    
Wind  
Wind Speed 10 mph (SSW)    
Max Wind Speed 20 mph    
Max Gust Speed 30 mph    
Visibility 10 miles    
Events Rain    
T = Trace of Precipitation, MM = Missing Value Source: NWS Daily Summary

Daily Weather History Graph

Daily Weather History Graph

Search for Another Location

Airport:

Trip Planner

Search our weather history database for the weather conditions in past years. The results will help you decide how hot, cold, wet, or windy it might be!

Date:

Astronomy

Jan. 30, 2013 Rise Set
Actual Time 7:25 AM EST 5:50 PM EST
Civil Twilight 6:58 AM EST 6:17 PM EST
Nautical Twilight 6:28 AM EST 6:48 PM EST
Astronomical Twilight 5:58 AM EST 7:18 PM EST
Moon 9:37 PM EST (1/30) 9:02 AM EST (1/30)
Length of Visible Light 11h 18m
Length of Day
10h 25m
Waning Gibbous, 88% of the Moon is Illuminated
Jan 30
Waning Gibbous
Feb 3
Last Quarter
Feb 10
New
Feb 17
First Quarter
Feb 25
Full

Hourly Weather History & Observations

Time (EST) Temp. Dew Point Humidity Pressure Visibility Wind Dir Wind Speed Gust Speed Precip Events Conditions
12:15 AM 62.6 °F 55.4 °F 77% 30.03 in 10.0 mi SSW 5.8 mph - N/A   Overcast
12:35 AM 62.6 °F 55.4 °F 77% 30.02 in 10.0 mi SSW 5.8 mph - N/A   Overcast
12:55 AM 62.6 °F 55.4 °F 77% 30.02 in 10.0 mi South 6.9 mph - N/A   Overcast
1:15 AM 62.6 °F 55.4 °F 77% 30.00 in 10.0 mi South 6.9 mph - N/A   Overcast
1:35 AM 62.6 °F 57.2 °F 82% 29.99 in 10.0 mi South 9.2 mph - N/A   Overcast
1:55 AM 62.6 °F 57.2 °F 82% 29.98 in 10.0 mi South 10.4 mph 16.1 mph N/A   Overcast
2:15 AM 62.6 °F 57.2 °F 82% 29.97 in 10.0 mi South 9.2 mph 18.4 mph N/A   Mostly Cloudy
2:35 AM 62.6 °F 57.2 °F 82% 29.97 in 10.0 mi SSW 9.2 mph 16.1 mph N/A   Scattered Clouds
2:55 AM 62.6 °F 57.2 °F 82% 29.97 in 10.0 mi SSW 6.9 mph - N/A   Mostly Cloudy
3:15 AM 62.6 °F 57.2 °F 82% 29.97 in 10.0 mi SW 5.8 mph 16.1 mph N/A   Overcast
3:35 AM 62.6 °F 57.2 °F 82% 29.96 in 10.0 mi South 10.4 mph - N/A   Overcast
3:55 AM 62.6 °F 57.2 °F 82% 29.95 in 10.0 mi South 8.1 mph - N/A   Overcast
4:15 AM 62.6 °F 57.2 °F 82% 29.94 in 10.0 mi SSW 6.9 mph - N/A   Overcast
4:35 AM 62.6 °F 59.0 °F 88% 29.93 in 10.0 mi South 9.2 mph 17.3 mph N/A   Overcast
4:55 AM 62.6 °F 59.0 °F 88% 29.93 in 10.0 mi South 10.4 mph 18.4 mph N/A   Overcast
5:15 AM 62.6 °F 59.0 °F 88% 29.92 in 10.0 mi South 5.8 mph - N/A   Overcast
5:35 AM 62.6 °F 59.0 °F 88% 29.92 in 10.0 mi SSW 4.6 mph - N/A   Overcast
5:55 AM 62.6 °F 59.0 °F 88% 29.91 in 10.0 mi South 6.9 mph - N/A   Overcast
6:15 AM 62.6 °F 60.8 °F 94% 29.90 in 10.0 mi South 9.2 mph - N/A   Overcast
6:35 AM 62.6 °F 60.8 °F 94% 29.89 in 10.0 mi South 10.4 mph 18.4 mph N/A   Overcast
6:55 AM 64.4 °F 60.8 °F 88% 29.89 in 10.0 mi South 11.5 mph 23.0 mph N/A   Overcast
7:15 AM 64.4 °F 60.8 °F 88% 29.89 in 10.0 mi South 11.5 mph 24.2 mph N/A   Overcast
7:35 AM 62.6 °F 60.8 °F 94% 29.88 in 10.0 mi South 12.7 mph 18.4 mph N/A   Overcast
7:55 AM 64.4 °F 60.8 °F 88% 29.88 in 10.0 mi South 11.5 mph 20.7 mph N/A Rain Rain
8:15 AM 64.4 °F 60.8 °F 88% 29.86 in 10.0 mi South 10.4 mph 19.6 mph N/A   Overcast
8:35 AM 64.4 °F 60.8 °F 88% 29.85 in 10.0 mi South 12.7 mph 20.7 mph N/A   Overcast
8:55 AM 64.4 °F 60.8 °F 88% 29.84 in 10.0 mi South 15.0 mph 23.0 mph N/A   Overcast
9:15 AM 64.4 °F 60.8 °F 88% 29.85 in 10.0 mi South 16.1 mph 24.2 mph N/A   Overcast
9:35 AM 64.4 °F 60.8 °F 88% 29.85 in 10.0 mi South 13.8 mph 27.6 mph N/A   Overcast
9:55 AM 66.2 °F 60.8 °F 83% 29.85 in 10.0 mi SSW 15.0 mph 25.3 mph N/A   Overcast
10:15 AM 66.2 °F 59.0 °F 78% 29.85 in 10.0 mi SSW 11.5 mph 18.4 mph N/A   Overcast
10:35 AM 66.2 °F 59.0 °F 78% 29.83 in 10.0 mi SSW 13.8 mph 24.2 mph N/A   Overcast
10:55 AM 66.2 °F 59.0 °F 78% 29.81 in 10.0 mi SSW 10.4 mph 19.6 mph N/A   Overcast
11:15 AM 68.0 °F 59.0 °F 73% 29.80 in 10.0 mi South 16.1 mph 25.3 mph N/A   Overcast
11:35 AM 68.0 °F 59.0 °F 73% 29.79 in 10.0 mi SSW 12.7 mph 19.6 mph N/A   Overcast
11:55 AM 68.0 °F 59.0 °F 73% 29.78 in 10.0 mi SSW 10.4 mph 23.0 mph N/A   Overcast
12:15 PM 68.0 °F 59.0 °F 73% 29.76 in 10.0 mi South 10.4 mph 19.6 mph N/A   Overcast
12:35 PM 68.0 °F 59.0 °F 73% 29.74 in 10.0 mi South 16.1 mph 21.9 mph N/A   Overcast
12:55 PM 69.8 °F 57.2 °F 64% 29.72 in 10.0 mi SSW 10.4 mph 19.6 mph N/A   Overcast
1:15 PM 69.8 °F 59.0 °F 68% 29.70 in 10.0 mi South 10.4 mph 20.7 mph N/A   Overcast
1:35 PM 69.8 °F 59.0 °F 68% 29.68 in 10.0 mi South 11.5 mph 17.3 mph N/A   Overcast
1:55 PM 69.8 °F 57.2 °F 64% 29.68 in 10.0 mi South 11.5 mph 16.1 mph N/A   Overcast
2:15 PM 69.8 °F 57.2 °F 64% 29.66 in 10.0 mi South 11.5 mph 16.1 mph N/A   Overcast
2:35 PM 69.8 °F 57.2 °F 64% 29.65 in 10.0 mi South 15.0 mph 26.5 mph N/A   Overcast
2:55 PM 69.8 °F 57.2 °F 64% 29.63 in 10.0 mi South 13.8 mph 21.9 mph N/A   Overcast
3:15 PM 69.8 °F 57.2 °F 64% 29.62 in 10.0 mi South 11.5 mph 23.0 mph N/A   Overcast
3:35 PM 69.8 °F 55.4 °F 60% 29.61 in 10.0 mi SSW 15.0 mph 24.2 mph N/A   Overcast
3:55 PM 69.8 °F 55.4 °F 60% 29.59 in 10.0 mi South 12.7 mph 24.2 mph N/A Rain Light Rain
4:15 PM 69.8 °F 55.4 °F 60% 29.57 in 10.0 mi South 13.8 mph 27.6 mph N/A   Overcast
4:35 PM 71.6 °F 55.4 °F 57% 29.56 in 10.0 mi South 11.5 mph 19.6 mph N/A   Overcast
4:55 PM 71.6 °F 53.6 °F 53% 29.53 in 10.0 mi South 11.5 mph 29.9 mph N/A   Overcast
5:15 PM 71.6 °F 53.6 °F 53% 29.51 in 10.0 mi South 12.7 mph 25.3 mph N/A   Overcast
5:35 PM 71.6 °F 55.4 °F 57% 29.51 in 10.0 mi South 13.8 mph 20.7 mph N/A Rain Rain
5:55 PM 68.0 °F 57.2 °F 68% 29.49 in 10.0 mi SSE 9.2 mph 23.0 mph 0.01 in Rain Light Rain
6:15 PM 66.2 °F 59.0 °F 78% 29.47 in 10.0 mi SSE 13.8 mph 19.6 mph 0.01 in Rain Rain
6:35 PM 64.4 °F 59.0 °F 83% 29.48 in 7.0 mi South 13.8 mph 20.7 mph 0.06 in Rain Heavy Rain
6:55 PM 64.4 °F 60.8 °F 88% 29.49 in 7.0 mi South 12.7 mph 19.6 mph 0.11 in Rain Rain
7:15 PM 62.6 °F 60.8 °F 94% 29.48 in 5.0 mi SSW 8.1 mph - 0.08 in Rain Heavy Rain
7:35 PM 62.6 °F 60.8 °F 94% 29.49 in 2.5 mi West 18.4 mph 27.6 mph 0.44 in Rain Heavy Rain
7:55 PM 62.6 °F 60.8 °F 94% 29.49 in 3.0 mi SW 11.5 mph 26.5 mph 0.76 in Rain Rain
8:15 PM 60.8 °F 60.8 °F 100% 29.48 in 7.0 mi SW 12.7 mph 18.4 mph 0.04 in Rain Rain
8:35 PM 60.8 °F 59.0 °F 94% 29.47 in 10.0 mi SW 6.9 mph 16.1 mph 0.08 in Rain Rain
8:55 PM 60.8 °F 59.0 °F 94% 29.49 in 10.0 mi SSW 12.7 mph 17.3 mph 0.09 in   Overcast
9:15 PM 60.8 °F 59.0 °F 94% 29.50 in 10.0 mi SSW 13.8 mph 24.2 mph 0.01 in Rain Light Rain
9:35 PM 59.0 °F 57.2 °F 94% 29.48 in 7.0 mi SW 12.7 mph 26.5 mph 0.01 in   Drizzle
9:55 PM 59.0 °F 55.4 °F 88% 29.51 in 10.0 mi SW 11.5 mph 23.0 mph 0.01 in Rain Rain
10:15 PM 55.4 °F 51.8 °F 88% 29.52 in 7.0 mi SW 13.8 mph 28.8 mph N/A Rain Rain
10:35 PM 55.4 °F 50.0 °F 82% 29.50 in 10.0 mi SW 17.3 mph 23.0 mph N/A   Overcast
10:55 PM 53.6 °F 48.2 °F 82% 29.53 in 10.0 mi SW 18.4 mph 25.3 mph 0.01 in Rain Rain
11:15 PM 51.8 °F 48.2 °F 88% 29.52 in 10.0 mi SW 11.5 mph 21.9 mph 0.01 in Rain Light Rain
11:35 PM 51.8 °F 46.4 °F 82% 29.54 in 10.0 mi SW 19.6 mph 25.3 mph 0.01 in   Overcast
11:55 PM 50.0 °F 46.4 °F 87% 29.53 in 10.0 mi SSW 15.0 mph 23.0 mph 0.02 in Rain Rain